SCP
0 0 0 0 0 0 0 0 0 -0 -0 -0 -0 -0 -0 -0 0 0 0 0 0 0 0 0 0 0 0 0 0 0 0 0 0 0 0 0 0 0 0 0 0 0 0
0 0 0 0 0 0 0 0 0 0 -0 -0 -0 -0 -0 -0 0 0 0 0 0 0 0 0 0 0 0 0 0 0 0 0 0 0 0 0 0 0 0 0 0 0 0
0 0 0 0 0 0 0 0 0 0 0 -0 -0 -0 -0 -0 -0 -0 -0 0 0 0 0 0 0 0 0 0 0 0 0 0 0 0 0 0 0 0 0 0 0 0 0
0 0 0 0 0 0 0 0 0 0 0 0 0 -0 -0 -0 -0 -0 -0 0 0 0 0 0 0 0 0 0 0 0 0 0 0 0 0 0 0 0 0 0 0 0 0
0 0 0 0 0 0 0 0 0 0 0 0 0 0 -0 -0 -0 -0 -0 0 0 0 0 0 0 0 0 0 0 0 0 0 0 0 0 0 0 0 0 0 0 0 0
0 0 0 0 0 0 0 0 0 0 0 0 0 0 0 0 0 0 0 0 0 0 0 0 0 0 0 0 0 0 0 0 0 0 0 0 0 0 0 0 0 0 0
0 0 0 0 0 0 0 0 0 0 0 0 0 0 0 0 0 0 0 0 0 0 0 0 0 0 0 0 0 0 0 0 0 0 0 0 0 0 0 0 0 0 0
0 0 0 0 0 0 0 0 0 0 0 0 0 0 0 0 0 0 0 0 0 0 0 0 0 0 0 0 0 0 0 0 0 0 0 0 0 0 0 0 0 0 0
0 0 0 0 0 0 0 0 -0 -0 -0 0 0 0 -0 -0 -0 -0 -0 0 -0 -0 0 0 0 0 0 0 0 0 0 0 0 0 0 0 0 0 0 0 0 0 0
0 0 0 0 0 0 0 -0 -0 -0 -0 -0 -0 -0 -0 -0 -0 -0 -0 -0 -0 -0 -0 0 0 0 0 0 0 0 0 0 0 0 0 0 0 0 0 0 0 0 0
0 0 0 0 0 0 0 0 -0 -0 -0 -0 -0 -0 0 0 0 0 0 0 -0 -0 -0 -0 0 0 0 0 0 0 0 0 0 0 0 0 0 0 0 0 0 0 0
0 0 0 0 0 0 0 0 0 -0 -0 -0 -0 -0 -0 -0 -0 0 -0 -0 -0 -0 -0 -0 0 0 0 0 0 0 0 0 0 0 0 0 0 0 0 0 0 0 0
0 0 0 0 0 0 0 0 0 0 0 0 -0 -0 -0 0 0 0 0 0 -0 -0 -0 0 0 0 0 0 0 0 0 0 0 0 0 0 0 0 0 0 0 0 0
0 0 0 0 0 0 0 0 0 0 0 0 0 0 0 0 1 1 0 0 0 0 0 0 0 0 0 0 0 0 0 0 0 0 0 0 0 0 0 0 0 1 1
0 0 0 1 1 1 1 1 0 1 1 1 1 1 1 1 1 1 1 1 1 1 1 1 1 0 0 0 0 0 0 0 0 0 0 0 0 0 0 0 0 1 1
1 1 1 1 1 1 1 1 1 1 1 1 1 1 1 1 1 1 1 1 1 1 1 1 1 1 0 0 0 0 0 0 0 0 0 0 0 0 0 0 0 0 1
1 1 1 1 1 1 1 1 1 1 1 1 1 1 1 1 1 1 1 1 1 1 1 1 1 1 0 0 0 0 0 0 0 0 0 0 0 0 0 0 0 0 0
1 1 1 1 1 1 1 1 1 1 1 1 1 1 1 1 1 1 1 1 1 1 1 1 1 1 1 0 0 0 0 0 0 0 1 1 0 0 0 0 0 0 0
1 1 1 1 1 1 1 1 1 1 1 1 1 1 1 1 1 1 1 1 1 1 1 1 1 1 1 0 0 0 0 0 1 1 1 1 1 0 0 0 0 0 0
1 1 1 1 1 1 1 1 1 1 1 1 1 1 1 1 1 1 1 1 1 1 1 1 1 1 1 0 0 0 0 1 1 1 1 1 0 0 0 0 0 0 0
1 1 1 1 1 1 1 1 1 1 1 1 1 1 1 1 1 1 1 1 1 1 1 1 1 1 1 0 0 0 0 0 1 1 1 1 0 0 0 0 0 0 0
1 1 1 1 1 1 1 1 1 1 1 1 1 1 1 1 1 1 1 1 1 1 1 1 1 1 0 0 0 0 0 0 1 1 1 0 0 0 0 0 0 0 0
1 1 1 1 1 1 1 1 1 1 1 1 1 1 1 1 1 1 1 1 1 1 1 1 1 0 0 0 0 0 0 0 0 0 0 0 0 0 0 0 0 0 0
1 1 1 1 1 1 1 1 1 1 1 1 1 1 1 1 1 1 1 1 1 1 1 1 1 0 0 0 0 0 0 0 0 0 0 0 0 0 0 0 0 0 0
1 1 1 1 1 1 1 1 1 1 1 1 1 1 1 1 1 1 1 0 0 1 1 1 1 0 0 0 0 0 0 0 0 0 1 1 0 0 0 0 0 0 0
1 1 1 1 1 1 1 1 1 1 1 1 1 1 1 1 1 0 0 0 0 0 0 0 0 0 0 0 0 0 0 0 0 0 1 1 0 0 0 0 0 0 0
Wind_Speed
8 7 7 6 6 6 6 5 5 5 4 3 3 3 3 2 2 2 3 3 2 3 2 2 3 2 2 2 3 3 3 3 2 2 1 1 1 1 1 1 0 1 0
9 9 8 7 7 7 6 6 6 6 5 3 2 2 1 2 2 2 2 2 2 2 3 2 2 2 2 3 3 3 2 2 3 2 2 2 3 2 1 2 2 1 1
11 10 9 9 8 8 7 6 6 6 5 4 4 3 3 3 3 3 3 2 2 2 1 2 2 2 3 3 3 3 4 3 3 3 2 2 1 1 2 2 2 1 1
11 11 10 10 9 8 8 7 7 6 5 5 4 4 3 2 2 2 2 2 2 2 3 3 2 2 2 3 4 3 3 4 3 3 2 2 0 2 2 2 2 1 1
11 11 11 10 9 9 8 8 7 7 6 5 5 4 4 3 3 3 3 2 2 2 3 3 3 3 2 2 2 2 3 3 3 2 2 2 3 3 2 2 2 1 1
11 11 10 10 9 9 8 8 8 7 7 7 6 5 4 3 3 3 3 3 2 2 2 2 2 2 2 2 3 3 4 3 3 3 3 3 2 2 2 2 2 2 1
10 11 11 11 10 10 9 9 8 8 8 8 7 6 5 5 5 4 4 3 2 2 2 2 2 1 2 2 2 3 3 3 4 4 3 3 3 2 2 2 2 2 2
10 10 11 11 11 11 10 10 9 8 8 8 7 7 7 5 4 4 3 3 2 2 3 3 3 2 2 2 1 2 2 3 3 4 3 3 2 2 2 2 2 2 2
10 10 10 11 11 11 11 10 10 9 8 8 8 7 7 5 4 5 4 3 3 3 4 3 3 3 2 2 2 1 2 2 3 3 4 3 2 3 3 3 3 3 3
9 10 10 10 10 10 10 9 9 9 8 8 7 6 7 6 5 5 5 4 3 3 4 4 4 3 3 3 2 2 2 2 2 2 2 3 2 2 3 3 3 3 3
8 9 9 9 10 9 9 9 9 9 8 8 7 6 6 6 6 5 5 5 5 5 5 4 4 4 3 3 3 3 2 3 3 3 3 3 2 3 3 3 3 2 2
7 8 9 9 9 9 9 9 9 9 8 7 7 7 6 6 6 6 6 5 5 5 5 5 4 4 4 4 4 4 3 3 3 2 2 3 2 3 3 2 3 2 2
7 8 8 8 8 8 7 7 8 8 8 8 8 7 7 7 7 6 6 6 5 5 5 4 4 4 3 4 4 4 3 3 3 3 3 3 3 3 2 3 3 3 3
7 7 7 7 7 7 7 7 7 7 7 8 8 8 8 7 6 6 6 6 6 5 5 4 4 4 4 3 4 4 4 4 3 3 3 3 3 3 3 3 3 3 3
6 6 6 6 6 6 6 6 6 6 6 7 7 7 7 7 6 6 6 5 6 6 5 5 5 5 4 3 4 4 4 4 3 3 3 2 1 1 2 3 3 4 4
6 5 5 4 5 5 5 5 6 6 6 6 6 6 6 6 6 6 6 6 6 6 6 6 5 5 4 2 2 5 4 4 4 4 3 3 4 3 2 2 2 3 5
4 4 3 4 4 4 4 5 5 5 6 6 6 6 6 6 6 7 6 6 6 6 6 6 6 6 4 5 5 5 5 4 4 4 4 3 2 4 4 4 5 4 4
3 3 2 3 4 4 4 4 5 5 6 6 6 6 6 6 7 7 7 7 6 6 6 6 6 6 5 7 6 5 6 5 5 5 4 4 3 2 3 4 4 4 5
2 1 2 2 2 3 3 4 4 5 6 6 6 6 6 6 6 7 7 6 6 6 6 6 6 6 5 7 6 6 6 5 6 5 5 4 4 2 3 5 4 4 4
2 1 1 2 2 2 3 3 4 4 5 5 5 5 6 6 6 6 6 5 6 6 6 6 6 6 5 7 7 7 5 5 5 5 5 4 4 4 4 5 5 5 4
2 1 1 1 1 2 2 3 3 3 3 3 3 4 4 5 5 5 5 4 5 5 5 5 5 5 5 7 8 8 6 5 5 5 4 3 6 5 5 6 5 3 3
1 1 1 1 1 1 2 2 2 1 1 2 2 3 4 4 4 4 4 4 5 5 6 6 5 5 5 5 7 9 8 6 5 4 3 3 7 6 6 5 2 2 4
1 1 1 1 1 0 1 1 1 1 1 1 2 2 3 3 3 4 5 4 5 5 5 5 5 4 4 5 7 8 8 6 5 3 1 3 6 6 6 6 6 6 5
1 1 1 1 1 1 1 1 2 2 2 2 2 3 3 3 3 3 3 4 4 5 5 5 5 4 4 4 4 5 5 6 5 4 4 6 6 5 4 5 7 6 5
1 1 2 2 2 2 2 2 2 3 3 3 3 3 3 3 3 3 2 4 4 4 5 4 4 4 4 3 3 3 4 4 4 4 4 4 4 5 5 5 5 5 5
2 2 3 3 3 3 3 3 3 4 4 4 4 4 4 3 3 3 3 2 3 4 5 4 4 3 2 3 5 4 3 3 4 4 5 4 5 5 5 5 5 5 5
Wind_Direction
172 173 179 180 176 176 178 180 181 170 181 181 190 173 167 168 154 151 144 161 167 158 174 175 151 185 175 183 173 179 177 184 168 183 160 151 140 127 140 139 122 135 145
178 178 184 184 184 181 183 185 186 181 189 176 183 178 162 166 149 137 133 162 173 176 172 175 186 176 177 184 182 186 213 194 189 211 207 189 160 135 102 122 136 106 114
188 184 188 190 188 185 188 189 184 183 189 180 182 172 172 189 164 156 153 162 169 170 170 181 207 191 210 193 199 202 211 214 204 223 249 237 165 141 139 128 107 103 83
193 189 188 190 190 187 184 183 180 183 182 187 194 194 188 177 151 164 143 152 166 178 183 192 201 210 215 202 215 198 218 224 217 196 238 275 309 230 166 156 137 125 121
190 189 189 187 187 184 180 176 178 180 181 187 182 195 199 186 169 166 154 177 166 186 186 186 194 206 217 212 229 210 228 226 239 228 209 195 195 229 233 190 173 165 147
186 187 185 182 185 181 179 175 175 181 181 185 184 192 192 193 183 183 177 185 171 179 172 184 198 215 229 219 218 221 218 230 236 243 233 229 225 216 219 213 202 179 140
181 182 183 181 184 183 181 177 174 180 184 187 189 189 191 192 194 204 188 196 184 172 161 177 187 207 210 227 230 217 232 225 220 227 234 244 255 240 238 220 205 202 171
180 181 183 183 184 185 182 181 180 185 187 188 188 190 192 198 192 197 206 192 194 177 161 176 181 182 196 206 207 232 223 216 225 231 235 242 244 236 230 236 228 218 195
179 180 181 184 184 185 185 185 184 187 189 190 188 189 194 200 190 184 200 196 192 180 171 181 182 184 190 201 204 216 230 214 220 220 214 229 224 234 238 233 239 244 233
177 179 180 181 182 183 181 185 186 190 192 191 192 185 188 192 192 196 190 190 186 180 180 190 193 194 196 198 213 204 205 213 217 232 237 236 233 228 230 234 235 242 249
172 172 175 178 178 179 177 181 186 189 192 194 191 190 187 188 189 194 192 189 187 182 187 193 199 203 205 204 210 223 207 213 215 222 219 225 245 243 232 227 230 229 229
167 167 168 170 176 180 181 181 186 188 191 187 186 186 186 188 193 191 190 185 182 185 184 191 198 204 204 206 210 219 212 219 226 228 228 230 222 229 242 235 229 223 225
164 162 163 167 173 178 182 183 189 189 187 184 187 185 190 192 196 193 190 186 183 185 185 189 194 200 206 212 215 217 218 226 232 231 236 239 230 232 225 236 226 218 213
159 164 165 170 173 176 177 184 190 188 186 186 191 188 192 192 192 194 191 188 186 185 187 188 193 196 205 214 223 221 220 220 223 227 231 238 233 230 226 224 227 223 216
159 164 168 168 173 173 176 183 186 185 184 188 193 191 190 187 186 192 192 191 195 191 185 192 199 200 202 213 225 226 215 211 212 217 227 230 240 274 258 250 226 217 220
159 164 168 166 173 176 179 181 185 182 181 188 193 187 188 189 189 192 190 190 195 197 192 199 205 209 205 153 219 255 224 211 211 215 218 207 194 185 202 254 260 250 231
147 154 163 171 177 183 186 186 184 179 181 190 193 187 193 198 200 199 194 196 199 197 199 205 209 213 191 170 199 239 238 221 220 222 228 233 193 202 201 200 212 225 241
141 146 162 170 173 175 182 186 178 178 186 192 194 194 198 202 202 202 203 203 205 204 202 205 211 212 193 179 199 223 230 227 225 229 231 233 225 224 222 214 214 215 216
126 144 172 167 162 165 166 174 181 183 190 198 200 200 202 204 203 204 205 205 207 214 210 207 212 214 193 175 188 212 221 219 224 228 227 229 220 199 241 227 221 217 209
91 91 126 149 155 164 161 179 189 190 199 202 200 201 206 209 210 206 205 208 207 215 216 211 212 211 204 175 186 210 226 220 222 220 219 217 226 191 220 230 223 222 220
81 68 87 109 133 152 168 185 192 205 212 209 201 199 204 211 214 214 212 212 211 213 216 211 208 208 203 180 189 209 232 229 228 226 222 199 177 198 220 245 239 231 239
63 62 69 79 78 142 162 173 187 216 211 196 199 202 207 213 206 206 209 209 213 212 210 211 213 206 195 188 190 204 228 257 243 239 231 175 163 189 210 225 213 200 233
19 5 11 22 27 81 178 194 213 216 195 192 211 212 210 218 217 212 210 209 213 218 214 213 214 210 197 176 179 194 212 233 241 239 117 139 166 184 201 210 208 210 223
338 319 304 300 327 326 244 234 231 217 206 208 217 217 217 218 216 227 223 223 226 226 221 218 217 216 207 196 184 192 196 202 212 213 166 169 184 213 218 200 209 223 233
316 295 285 287 288 289 276 255 242 229 224 221 222 227 227 221 212 219 240 236 233 235 232 228 219 217 218 201 189 205 207 207 195 197 201 198 192 203 213 219 220 224 222
326 313 304 297 294 292 287 279 256 240 238 240 234 229 229 221 217 211 223 225 238 217 211 229 237 226 196 165 176 195 205 185 179 207 215 214 217 219 220 221 221 224 231